Flag for USA

Past Weather in Burleson, Texas, USA — Yesterday and Last 2 Weeks

Now
93 °F

Sunny.


Feels Like: 99 °F
Forecast: 101 / 73 °F
Wind: 5 mph from South

Location: Burleson-Rendon

Current Time: Jul 4, 2020 at 1:09:50 pm

Latest Report: Jul 4, 2020 at 11:54 am


Visibility: 10 mi

Pressure: 29.96 "Hg

Humidity: 47%

Dew Point: 70 °F

Location of BurlesonLocation

Past Weather in Burleson — Graph

°F

Burleson Temperature Yesterday

Maximum temperature yesterday: 99 °F (at 3:51 pm)
Minimum temperature yesterday: 72 °F (at 5:15 am)
Average temperature yesterday: 82 °F

High & Low Weather Summary for the Past Weeks

 TemperatureHumidityPressure
High99 °F (Jul 2, 2:47 pm)100% (Jun 20, 6:46 am)30.10 "Hg (Jun 20, 6:46 am)
Low66 °F (Jun 20, 6:46 am)29% (Jul 3, 5:46 pm)29.75 "Hg (Jun 28, 6:47 pm)
Average80 °F74%29.92 "Hg
* Reported Jun 19 11:50 am — Jul 4 11:54 am, Burleson. Weather by CustomWeather, © 2020

Note: Actual official high and low records may vary slightly from our data, if they occured in-between our weather recording intervals... More about our weather records

Burleson Weather History for the Previous 24 Hours

Scroll right to see more
 ConditionsComfort  
Time TempWeatherWind HumidityBarometerVisibility
11:54 am
Sat, Jul 4
93 °FSunny.5 mph47%29.96 "Hg10 mi
10:46 am90 °FSunny.5 mph52%29.97 "Hg10 mi
9:46 am86 °FSunny.7 mph59%29.96 "Hg10 mi
8:48 am81 °FSunny.7 mph70%29.96 "Hg10 mi
7:47 am75 °FSunny.6 mph78%29.96 "Hg7 mi
6:46 am72 °FSunny.No wind83%29.96 "Hg7 mi
6:35 am72 °FSunny.3 mph83%29.95 "Hg10 mi
6:15 am71 °FClear.3 mph83%29.95 "Hg10 mi
5:55 am71 °FClear.3 mph83%29.94 "Hg10 mi
5:35 am72 °FClear.5 mph81%29.94 "Hg10 mi
5:15 am72 °FClear.No wind81%29.95 "Hg10 mi
4:55 am73 °FClear.3 mph80%29.95 "Hg10 mi
4:35 am73 °FClear.3 mph78%29.95 "Hg10 mi
4:15 am74 °FClear.5 mph77%29.95 "Hg10 mi
3:55 am74 °FClear.5 mph78%29.96 "Hg10 mi
3:35 am75 °FClear.5 mph77%29.95 "Hg10 mi
3:15 am74 °FClear.3 mph77%29.95 "Hg10 mi
2:55 am75 °FClear.No wind78%29.95 "Hg10 mi
2:35 am74 °FClear.5 mph78%29.95 "Hg10 mi
2:15 am75 °FClear.3 mph78%29.95 "Hg10 mi
1:55 am76 °FClear.3 mph76%29.95 "Hg10 mi
1:35 am76 °FClear.3 mph77%29.96 "Hg10 mi
12:55 am78 °FClear.3 mph72%29.96 "Hg10 mi
12:35 am78 °FClear.6 mph71%29.96 "Hg10 mi
12:15 am79 °FClear.6 mph69%29.96 "Hg10 mi
11:55 pm
Fri, Jul 3
80 °FClear.5 mph66%29.96 "Hg10 mi
11:35 pm81 °FClear.6 mph63%29.97 "Hg10 mi
11:15 pm83 °FClear.7 mph59%29.97 "Hg10 mi
10:55 pm83 °FClear.9 mph58%29.97 "Hg10 mi
10:35 pm83 °FClear.7 mph57%29.95 "Hg7 mi
10:15 pm82 °FClear.5 mph59%29.96 "Hg7 mi
9:55 pm83 °FClear.6 mph61%29.96 "Hg5 mi
9:35 pm83 °FClear.5 mph63%29.96 "Hg7 mi
9:15 pm84 °FClear.3 mph64%29.95 "Hg7 mi
8:55 pm84 °FClear.No wind66%29.95 "Hg5 mi
8:15 pm90 °FSunny.No wind50%29.94 "Hg4 mi
7:55 pm93 °FSunny.No wind44%29.93 "Hg5 mi
6:51 pm97 °FSunny.5 mph34%29.92 "Hg7 mi
5:46 pm99 °FSunny.No wind29%29.92 "Hg7 mi
4:48 pm99 °FSunny.6 mph31%29.95 "Hg7 mi
3:51 pm99 °FSunny.No wind35%29.96 "Hg7 mi
2:47 pm97 °FSunny.3 mph34%29.97 "Hg7 mi
1:49 pm97 °FSunny.7 mph39%29.99 "Hg5 mi
Weather by CustomWeather, © 2020

See weather overview